Location: Julian California
(33.0790°N, 116.6010°W)
Time: 12:17:47
(UTC-07:00)

Cosmos 1697 Rocket - Pass Details

Date: 24 March 2019
Orbit: 831 x 844 km, 71.0° (Epoch: 21 October)

Event Time Altitude Azimuth Distance (km) Brightness Sun altitude
Rises 19:28:13 0° 205° (SSW) 3,384 6.1 -6.5°
Reaches altitude 10° 19:30:39 10° 207° (SSW) 2,452 5.4 -7.0°
Maximum altitude 19:36:16 71° 291° (WNW) 891 3.1 -8.2°
Drops below altitude 10° 19:41:54 10° 16° (NNE) 2,460 5.1 -9.4°
Sets 19:44:22 0° 18° (NNE) 3,397 5.7 -9.9°
